EZY52LD EGKK-LEIB

Flight info

Callsign EZY52LD
Flight time N/A
Altitude 23000
Route BOGNA L612 BENBO Y47 DRAKE/N0446F350 L151 SITET UN859 SOPIL DCT BALAN DCT EVPOK DCT NARAK DCT GAI DCT LOMRA DCT ROCAN/N0429F310 DCT PUMAL N859 BCN Z174 CORDA
Aircraft A319/M-SDE3FGHIRWY/LB1

Departure

Time 2026-04-15 13:49
Airport London Gatwick Airport (EGKK)

Arrival

Time N/A
Airport Ibiza Airport (LEIB)
Time Latitude Longitude Altitude Speed Heading
2026-04-15 13:28 51.15566 -0.17817 209 ft 0 kts 347°
2026-04-15 13:28 51.15567 -0.17817 209 ft 0 kts 347°
2026-04-15 13:40 51.15562 -0.17816 213 ft 2 kts 347°
2026-04-15 13:41 51.15545 -0.17809 214 ft 3 kts 347°
2026-04-15 13:41 51.15527 -0.17803 214 ft 3 kts 348°
2026-04-15 13:41 51.15509 -0.17799 212 ft 3 kts 18°
2026-04-15 13:41 51.15497 -0.17813 206 ft 2 kts 72°
2026-04-15 13:42 51.15494 -0.17829 214 ft 2 kts 78°
2026-04-15 13:42 51.15492 -0.17846 207 ft 0 kts 78°
2026-04-15 13:42 51.15492 -0.17847 207 ft 0 kts 78°
2026-04-15 13:43 51.15493 -0.17836 213 ft 3 kts 78°
2026-04-15 13:44 51.15499 -0.17791 212 ft 5 kts 78°
2026-04-15 13:44 51.15507 -0.17735 209 ft 6 kts 78°
2026-04-15 13:44 51.15516 -0.17671 204 ft 6 kts 78°
2026-04-15 13:44 51.15527 -0.17591 204 ft 8 kts 78°
2026-04-15 13:45 51.15539 -0.17502 206 ft 8 kts 78°
2026-04-15 13:45 51.15518 -0.17429 204 ft 8 kts 155°
2026-04-15 13:45 51.15461 -0.17408 204 ft 9 kts 167°
2026-04-15 13:47 51.15219 -0.16913 211 ft 0 kts 77°
2026-04-15 13:47 51.15220 -0.16911 210 ft 1 kts 77°
2026-04-15 13:48 51.15222 -0.16892 208 ft 4 kts 77°
2026-04-15 13:48 51.15199 -0.16800 204 ft 14 kts 146°
2026-04-15 13:48 51.15114 -0.16861 206 ft 21 kts 253°
2026-04-15 13:48 51.15043 -0.17363 214 ft 81 kts 258°
2026-04-15 13:49 51.14876 -0.18573 204 ft 141 kts 257°
2026-04-15 13:49 51.14651 -0.20291 509 ft 161 kts 256°
2026-04-15 13:49 51.14438 -0.22004 1336 ft 156 kts 251°
2026-04-15 13:49 51.14191 -0.23753 1873 ft 172 kts 252°
2026-04-15 13:50 51.13896 -0.25755 2260 ft 197 kts 252°
2026-04-15 13:50 51.13586 -0.27916 3133 ft 200 kts 252°
2026-04-15 13:50 51.13283 -0.30080 4085 ft 201 kts 252°
2026-04-15 13:50 51.12973 -0.32293 4798 ft 206 kts 252°
2026-04-15 13:51 51.12661 -0.34528 5585 ft 209 kts 252°
2026-04-15 13:51 51.12344 -0.36791 6388 ft 209 kts 252°
2026-04-15 13:51 51.12030 -0.39024 7247 ft 211 kts 252°
2026-04-15 13:51 51.11402 -0.41091 8030 ft 209 kts 223°
2026-04-15 13:52 51.10095 -0.42082 8869 ft 217 kts 189°
2026-04-15 13:52 51.08562 -0.41980 9779 ft 223 kts 181°
2026-04-15 13:52 51.06998 -0.41776 10501 ft 232 kts 181°
2026-04-15 13:52 51.05309 -0.41557 10851 ft 253 kts 180°
2026-04-15 13:53 51.03518 -0.41322 11540 ft 261 kts 180°
2026-04-15 13:53 51.01690 -0.41077 12372 ft 265 kts 180°
2026-04-15 13:53 50.99840 -0.40828 13213 ft 268 kts 180°
2026-04-15 13:53 50.97965 -0.40581 13727 ft 283 kts 180°
2026-04-15 13:54 50.95929 -0.40332 13953 ft 304 kts 180°
2026-04-15 13:54 50.93736 -0.40066 14096 ft 326 kts 180°
2026-04-15 13:54 50.91463 -0.39783 14841 ft 324 kts 180°
2026-04-15 13:54 50.89234 -0.39491 15773 ft 321 kts 180°
2026-04-15 13:55 50.87016 -0.38849 16490 ft 329 kts 169°
2026-04-15 13:55 50.84808 -0.37803 17199 ft 332 kts 169°
2026-04-15 13:55 50.82591 -0.36747 17897 ft 334 kts 169°
2026-04-15 13:55 50.80348 -0.35673 18556 ft 338 kts 168°
2026-04-15 13:56 50.78088 -0.34589 19170 ft 339 kts 168°
2026-04-15 13:56 50.75824 -0.33503 19817 ft 340 kts 169°
2026-04-15 13:56 50.73555 -0.32419 20474 ft 341 kts 169°
2026-04-15 13:56 50.71281 -0.31333 21127 ft 342 kts 169°
2026-04-15 13:57 50.69001 -0.30245 21772 ft 343 kts 169°
2026-04-15 13:57 50.66739 -0.29167 22405 ft 344 kts 169°
2026-04-15 13:57 50.64443 -0.28078 23021 ft 345 kts 169°
2026-04-15 13:57 50.62101 -0.26968 23627 ft 347 kts 169°
2026-04-15 13:58 50.59809 -0.25882 24095 ft 349 kts 169°
2026-04-15 13:58 50.57476 -0.24774 24550 ft 351 kts 169°
2026-04-15 13:58 50.55130 -0.23661 24987 ft 354 kts 169°
2026-04-15 13:58 50.52765 -0.22540 25421 ft 356 kts 169°
2026-04-15 13:59 50.50380 -0.21416 25850 ft 358 kts 169°
2026-04-15 13:59 50.47984 -0.20293 26268 ft 361 kts 169°
2026-04-15 13:59 50.45569 -0.19162 26683 ft 363 kts 169°
2026-04-15 13:59 50.43138 -0.18021 27089 ft 365 kts 169°
2026-04-15 14:00 50.40692 -0.16875 27456 ft 368 kts 170°
2026-04-15 14:00 50.38227 -0.15718 27833 ft 371 kts 170°
2026-04-15 14:00 50.35743 -0.14548 28220 ft 374 kts 169°
2026-04-15 14:00 50.33240 -0.13369 28611 ft 377 kts 169°
2026-04-15 14:01 50.28178 -0.10996 29376 ft 382 kts 169°
2026-04-15 14:01 50.25623 -0.09802 29749 ft 384 kts 170°
2026-04-15 14:01 50.23053 -0.08603 30117 ft 387 kts 169°
2026-04-15 14:02 50.20479 -0.07287 30414 ft 393 kts 165°
2026-04-15 14:02 50.17961 -0.05549 30655 ft 398 kts 163°
2026-04-15 14:02 50.15418 -0.03778 30911 ft 401 kts 163°
2026-04-15 14:02 50.12860 -0.01999 31186 ft 404 kts 163°
2026-04-15 14:03 50.10274 -0.00261 31394 ft 404 kts 166°
2026-04-15 14:03 50.07590 0.00962 31591 ft 402 kts 172°
2026-04-15 14:03 50.04869 0.02031 31917 ft 403 kts 172°
2026-04-15 14:03 50.02154 0.03102 32330 ft 402 kts 172°
2026-04-15 14:04 49.99483 0.04160 32738 ft 401 kts 172°
2026-04-15 14:04 49.96777 0.05227 33124 ft 400 kts 172°
2026-04-15 14:04 49.94080 0.06281 33455 ft 401 kts 172°
2026-04-15 14:04 49.91371 0.07341 33819 ft 401 kts 172°
2026-04-15 14:05 49.88670 0.08399 34194 ft 400 kts 172°
2026-04-15 14:05 49.85967 0.09454 34527 ft 400 kts 172°
2026-04-15 14:05 49.83269 0.10510 34829 ft 400 kts 172°
2026-04-15 14:05 49.80560 0.11567 35059 ft 401 kts 172°
2026-04-15 14:06 49.77865 0.12620 35122 ft 396 kts 172°
2026-04-15 14:06 49.72552 0.14703 35103 ft 392 kts 172°
2026-04-15 14:07 49.67286 0.16751 35114 ft 392 kts 172°
2026-04-15 14:07 49.61992 0.18864 35112 ft 393 kts 172°
2026-04-15 14:08 49.56699 0.21003 35110 ft 393 kts 172°
2026-04-15 14:08 49.51415 0.23141 35075 ft 392 kts 172°
2026-04-15 14:09 49.46120 0.25272 35083 ft 393 kts 172°
2026-04-15 14:09 49.40819 0.27391 35084 ft 394 kts 172°
2026-04-15 14:10 49.35540 0.29491 35086 ft 394 kts 172°
2026-04-15 14:10 49.32270 0.30792 35091 ft 395 kts 172°